OH2FDL-2 Weather Reports


Display with metric or nautical units.
time (UTC)temp
F
wind
direction
speed
MPH
gust
MPH
rain 1hr
in
rain 24hr
in
rain mn
in
humidity
%
barometer
mb
20260905091517 56 0.0 0.0 0.00 0.00 0.00 10 991.4
20260905090018 54 0.0 0.0 0.00 0.00 0.00 10 991.3
20260905084517 53 0.0 0.0 0.00 0.00 0.00 10 991.2
20260905083018 52 0.0 0.0 0.00 0.00 0.00 10 991.2
20260905081518 52 0.0 0.0 0.00 0.00 0.00 10 991.2
20260905080017 52 0.0 0.0 0.00 0.00 0.00 10 991.1
20260905073017 51 0.0 0.0 0.00 0.00 0.00 10 991.0
20260905070033 50 0.0 0.0 0.00 0.00 0.00 10 990.8
20260905064533 49 0.0 0.0 0.00 0.00 0.00 10 990.7
20260905063028 48 0.0 0.0 0.00 0.00 0.00 10 990.6
20260905061523 46 0.0 0.0 0.00 0.00 0.00 10 990.5
20260905060017 45 0.0 0.0 0.00 0.00 0.00 10 990.5
20260905054517 44 0.0 0.0 0.00 0.00 0.00 10 990.5
20260905053018 43 0.0 0.0 0.00 0.00 0.00 10 990.5
20260905050028 42 0.0 0.0 0.00 0.00 0.00 10 990.5
20260905041518 40 0.0 0.0 0.00 0.00 0.00 10 990.6
20260905040018 40 0.0 0.0 0.00 0.00 0.00 10 990.5
20260905034518 40 0.0 0.0 0.00 0.00 0.00 10 990.5
20260905033027 40 0.0 0.0 0.00 0.00 0.00 10 990.6
20260905031523 40 0.0 0.0 0.00 0.00 0.00 10 990.6
20260905030022 40 0.0 0.0 0.00 0.00 0.00 10 990.6
20260905023018 41 0.0 0.0 0.00 0.00 0.00 10 990.5
20260905021518 41 0.0 0.0 0.00 0.00 0.00 10 990.5
20260905014528 41 0.0 0.0 0.00 0.00 0.00 10 990.5
20260905013023 41 0.0 0.0 0.00 0.00 0.00 10 990.5
20260905011522 41 0.0 0.0 0.00 0.00 0.00 10 990.5
20260905010018 41 0.0 0.0 0.00 0.00 0.00 10 990.5
20260905004517 42 0.0 0.0 0.00 0.00 0.00 10 990.5
20260905003018 42 0.0 0.0 0.00 0.00 0.00 10 990.5
20260905001527 42 0.0 0.0 0.00 0.00 0.00 10 990.6
20260905000027 43 0.0 0.0 0.00 0.00 0.00 10 990.6
20260904234522 43 0.0 0.0 0.00 0.00 0.00 10 990.7
20260904233018 43 0.0 0.0 0.00 0.00 0.00 10 990.9
20260904230019 44 0.0 0.0 0.00 0.00 0.00 10 991.1
20260904223028 45 0.0 0.0 0.00 0.00 0.00 10 991.3
20260904221528 46 0.0 0.0 0.00 0.00 0.00 10 991.4
20260904214518 47 0.0 0.0 0.00 0.00 0.00 10 991.6
20260904213018 47 0.0 0.0 0.00 0.00 0.00 10 991.7
20260904211518 47 0.0 0.0 0.00 0.00 0.00 10 991.8
20260904210018 48 0.0 0.0 0.00 0.00 0.00 10 991.9
20260904204528 48 0.0 0.0 0.00 0.00 0.00 10 992.0
20260904201523 49 0.0 0.0 0.00 0.00 0.00 10 992.2
20260904194518 49 0.0 0.0 0.00 0.00 0.00 10 992.4
20260904193018 49 0.0 0.0 0.00 0.00 0.00 10 992.5
20260904191528 49 0.0 0.0 0.00 0.00 0.00 10 992.7
20260904190026 50 0.0 0.0 0.00 0.00 0.00 10 992.8
20260904184523 50 0.0 0.0 0.00 0.00 0.00 10 993.0
20260904181517 51 0.0 0.0 0.00 0.00 0.00 10 993.2
20260904180018 52 0.0 0.0 0.00 0.00 0.00 10 993.2
20260904174518 53 0.0 0.0 0.00 0.00 0.00 10 993.2
20260904173027 54 0.0 0.0 0.00 0.00 0.00 10 993.2
20260904171527 55 0.0 0.0 0.00 0.00 0.00 10 993.3
20260904170023 56 0.0 0.0 0.00 0.00 0.00 10 993.4
20260904163018 58 0.0 0.0 0.00 0.00 0.00 10 993.5
20260904161518 59 0.0 0.0 0.00 0.00 0.00 10 993.5
20260904160018 60 0.0 0.0 0.00 0.00 0.00 10 993.6
20260904154529 61 0.0 0.0 0.00 0.00 0.00 10 993.6
20260904153023 62 0.0 0.0 0.00 0.00 0.00 10 993.7
20260904151518 63 0.0 0.0 0.00 0.00 0.00 10 993.8
20260904150018 65 0.0 0.0 0.00 0.00 0.00 10 993.9
20260904144518 66 0.0 0.0 0.00 0.00 0.00 10 993.9
20260904143018 67 0.0 0.0 0.00 0.00 0.00 10 993.8
20260904141527 68 0.0 0.0 0.00 0.00 0.00 10 994.0
20260904140022 68 0.0 0.0 0.00 0.00 0.00 10 994.0
20260904134522 65 0.0 0.0 0.00 0.00 0.00 10 994.1
20260904133019 62 0.0 0.0 0.00 0.00 0.00 10 994.2
20260904131518 60 0.0 0.0 0.00 0.00 0.00 10 994.2
20260904130018 60 0.0 0.0 0.00 0.00 0.00 10 994.2
20260904124518 58 0.0 0.0 0.00 0.00 0.00 10 994.3
20260904123023 58 0.0 0.0 0.00 0.00 0.00 10 994.3
20260904121523 60 0.0 0.0 0.00 0.00 0.00 10 994.4
20260904120018 63 0.0 0.0 0.00 0.00 0.00 10 994.2
20260904113017 63 0.0 0.0 0.00 0.00 0.00 10 994.2
20260904111518 62 0.0 0.0 0.00 0.00 0.00 10 994.2
20260904104523 62 0.0 0.0 0.00 0.00 0.00 10 994.3
20260904101518 61 0.0 0.0 0.00 0.00 0.00 10 994.5
20260904100018 62 0.0 0.0 0.00 0.00 0.00 10 994.7